sat.trackr.live / text

‹ back to catalog

STARLINK-36787

NORAD 68094 · 2026-042AB

PAYLOAD ACTIVE UNKNOWN

§ Identity

Operator
Country
US
Launch date
2026-03-04
Launch site
AFETR
Launch vehicle
Mass (kg)
RCS (m²)

Purposes: comms

External: N2YO · Heavens-Above · Gunter

§ Orbital elements

Epoch: 2026-09-19T23:23:12.437664Z

Period
93.85 min
Inclination
53.1608°
Eccentricity
0.0001239
Mean motion
15.34405382 rev/d
Perigee alt
461.8 km
Apogee alt
463.5 km
Semi-major
6,840.8 km
B*
4.4309e-4
RAAN
351.8384°
Arg perigee
76.6782°
Mean anomaly
283.4359°
Rev number
3,210

§ Raw data

STARLINK-367871 68094U 26042AB  26262.97444951  .00014626  00000+0  44309-3 0  99932 68094  53.1608 351.8384 0001239  76.6782 283.4359 15.34405382 32100

JSON: /api/v1/satellites/68094 · /tle

For live sub-satellite position, see the globe view (requires WebGL).

§ Visibility from observer

Set your observer location to see the next 7 days of passes ≥ 10°. The values pass through the URL so the page stays shareable.

No JS? Fill the form by hand. The geolocation button needs JavaScript.